[[{"header":{"parameterUnit":"m.s-1","parameterCategory":1,"la1":30.2992,"la2":30.254,"lo1":-89.0895,"lo2":-89.0443,"dy":0.0025,"dx":0.0025,"nx":19,"ny":19,"refTime":"2026-05-07T21:00:00:Z","depth":0,"parameterNumber":2,"parameterNumberName":"U-component_of_WINDS"},"data":[0,0,0,-5.8195,-5.8198,-5.8339,-5.834,-5.8543,-5.8545,0,0,0,0,0,0,0,0,0,0,0,-5.8166,-5.8168,-5.8194,-5.8198,-5.8339,-5.834,-5.8542,-5.8545,0,0,0,0,0,0,0,0,0,0,0,-5.8165,-5.8167,-5.817,-5.8199,-5.8339,-5.834,-5.8542,-5.8427,0,0,0,0,0,0,0,0,0,0,-5.8286,-5.8273,-5.8167,-5.817,-5.82,-5.8339,-5.834,-5.8422,-5.8435,-5.8488,0,-5.8539,0,-5.8545,-5.856,-5.8561,0,0,0,-5.8188,-5.8262,-5.8288,-5.817,-5.8201,-5.8339,-5.8273,-5.8429,-5.8443,-5.8506,-5.8542,-5.8549,-5.8549,-5.8561,-5.8562,-5.8902,-5.8904,0,0,-5.8181,-5.8199,-5.8278,-5.8299,-5.8278,-5.8268,-5.8277,-5.8437,-5.8478,-5.8543,-5.8553,-5.8552,-5.8563,-5.8564,-5.89,-5.8903,0,0,0,-5.8165,-5.8194,-5.8215,-5.8291,-5.8315,-5.8273,-5.8283,-5.8471,-5.8476,-5.8555,-5.8555,-5.8564,-5.8567,-5.8898,-5.8901,-5.9017,0,0,0,-5.816,-5.8184,-5.8212,-5.8225,-5.8312,-5.8395,-5.8314,-5.8465,-5.8483,-5.8554,-5.8564,-5.8569,-5.8896,-5.89,-5.9009,-5.9068,0,0,0,-5.8152,-5.8183,-5.8208,-5.8226,-5.8287,-5.8391,-5.8406,-5.8469,-5.8483,-5.8561,-5.857,-5.8894,-5.8899,-5.9002,-5.9056,-5.916,0,0,0,-5.815,-5.8311,-5.8211,-5.8391,-5.8286,-5.8463,-5.8404,-5.8536,-5.8617,-5.8565,-5.8896,-5.8901,-5.8999,-5.9049,-5.9152,-5.9247,-5.929,0,0,-5.8363,-5.8338,-5.8442,-5.8356,-5.8555,-5.844,-5.8657,-5.8714,-5.8706,-5.8838,-5.8846,-5.9012,-5.9055,-5.9158,-5.9528,-5.9562,0,0,0,-5.8516,-5.8591,-5.864,-5.8717,-5.8765,-5.881,-5.8832,-5.8854,-5.8964,-5.8777,-5.9079,-5.9104,-5.9164,-5.9208,-5.9237,-5.9285,-5.8924,-5.8923,-5.8923,-5.8842,-5.8822,-5.8993,-5.899,-5.9066,-5.9087,-5.9147,-5.9179,-5.9138,-5.921,-5.9247,-5.9474,-5.9527,-5.9548,-5.9599,-5.93,-5.93,-5.9301,-5.9301,-5.915,-5.9251,-5.9193,-5.9336,-5.9315,-5.9436,-5.9464,-5.9431,-5.954,-5.9445,-5.9496,-5.939,-5.9586,-5.9629,-5.9309,-5.9308,-5.9307,-5.9306,-5.9305,-5.9358,-5.9402,-5.9426,-5.9534,-5.9621,-5.9613,-5.972,-5.9698,-5.9678,-5.9729,-5.9764,-5.9762,-5.9754,-5.9748,-5.9749,-5.975,-5.9751,-5.9751,-5.9752,-5.9562,-5.9585,-5.9677,-5.9741,-5.9787,-5.9844,-5.9869,-5.9913,-5.9957,-5.9932,-5.9932,-5.9882,-5.9611,-5.954,-5.9764,-5.9762,-5.976,-5.9759,-5.9758,-5.9875,-5.98,-5.9942,-5.9988,-6.0061,-6.0146,-6.0118,-6.0211,-6.0245,-6.0298,-6.0239,-6.0043,-6.0014,-5.9991,-5.9932,-6.0244,-6.0244,-6.0244,-6.0244,-6.0047,-6.0031,-6.017,-6.0244,-6.0315,-6.0303,-6.0463,-6.0484,-6.0494,-6.0514,-6.0467,-6.0389,-6.0367,-6.0351,-6.0321,-6.0265,-6.0655,-6.0655,-6.0655,-6.0235,-6.0226,-6.0365,-6.0373,-6.0428,-6.0476,-6.0626,-6.0713,-6.071,-6.0671,-6.0528,-6.0511,-6.0385,-6.0345,-6.0299,-6.0251,-6.0149,0,0]},{"header":{"parameterUnit":"m.s-1","parameterCategory":1,"la1":30.2992,"la2":30.254,"lo1":-89.0895,"lo2":-89.0443,"dy":0.0025,"dx":0.0025,"nx":19,"ny":19,"refTime":"2026-05-07T21:00:00:Z","depth":0,"parameterNumber":3,"parameterNumberName":"V-component_of_WINDS"},"data":[0,0,0,2.6223,2.6225,2.635,2.635,2.6501,2.6502,0,0,0,0,0,0,0,0,0,0,0,2.6182,2.6183,2.6222,2.6226,2.635,2.635,2.65,2.6502,0,0,0,0,0,0,0,0,0,0,0,2.6182,2.6183,2.6184,2.6226,2.635,2.635,2.65,2.6409,0,0,0,0,0,0,0,0,0,0,2.629,2.6249,2.6183,2.6184,2.6227,2.6349,2.635,2.6405,2.6415,2.6441,0,2.6465,0,2.6486,2.6512,2.6512,0,0,0,2.6228,2.624,2.6278,2.6184,2.6228,2.6349,2.6294,2.641,2.6422,2.6454,2.6467,2.6473,2.6489,2.6513,2.6513,2.6664,2.6664,0,0,2.6221,2.6202,2.627,2.6285,2.6267,2.629,2.6298,2.6417,2.6429,2.6468,2.6477,2.6491,2.6514,2.6515,2.6663,2.6664,0,0,0,2.62,2.6197,2.6232,2.6278,2.6302,2.6294,2.6303,2.6424,2.6437,2.6478,2.6493,2.6514,2.6516,2.6663,2.6663,2.6675,0,0,0,2.6196,2.6185,2.6228,2.6218,2.6299,2.6365,2.6307,2.6429,2.6443,2.6492,2.6514,2.6518,2.6662,2.6663,2.6674,2.6684,0,0,0,2.6175,2.6182,2.6199,2.6217,2.627,2.6363,2.6383,2.6432,2.6452,2.6512,2.6518,2.6662,2.6663,2.6672,2.6681,2.6718,0,0,0,2.6147,2.6206,2.6199,2.6271,2.6269,2.637,2.6383,2.6459,2.6512,2.6515,2.6662,2.6663,2.6672,2.668,2.6717,2.6746,2.6757,0,0,2.6211,2.6213,2.6257,2.6254,2.6353,2.6353,2.6453,2.6519,2.6541,2.6621,2.6625,2.6674,2.6681,2.6718,2.6823,2.6832,0,0,0,2.6271,2.6302,2.6332,2.6384,2.6437,2.6484,2.6537,2.6561,2.6631,2.6579,2.6699,2.6703,2.6725,2.674,2.6747,2.6768,2.667,2.6669,2.6669,2.6332,2.636,2.6434,2.6477,2.6527,2.6583,2.6625,2.6668,2.6679,2.6707,2.673,2.6791,2.6808,2.6813,2.6834,2.6748,2.6749,2.6749,2.6749,2.6428,2.6476,2.6493,2.6572,2.66,2.6665,2.6722,2.6728,2.6793,2.6775,2.6796,2.6774,2.6822,2.6842,2.675,2.675,2.6749,2.6749,2.6749,2.647,2.6499,2.653,2.6609,2.6666,2.6707,2.6769,2.6793,2.6815,2.6836,2.6864,2.6863,2.6866,2.6848,2.6848,2.6848,2.6848,2.6848,2.6849,2.6502,2.6537,2.6588,2.6652,2.6689,2.674,2.6798,2.6835,2.6881,2.6893,2.6894,2.6902,2.6822,2.6801,2.6852,2.6851,2.6851,2.6851,2.685,2.6588,2.6573,2.6651,2.6689,2.6766,2.6822,2.6852,2.6926,2.6959,2.6989,2.6995,2.6931,2.6934,2.6929,2.6912,2.6988,2.6988,2.6988,2.6988,2.6624,2.6629,2.6715,2.6774,2.6834,2.687,2.6957,2.7003,2.7048,2.707,2.7063,2.7042,2.7036,2.7043,2.7035,2.7019,2.7121,2.7122,2.7122,2.6678,2.6691,2.676,2.6807,2.687,2.6923,2.7006,2.7072,2.7119,2.7128,2.7089,2.7083,2.705,2.7038,2.7044,2.7031,2.7002,0,0]}]]